2024/03/10 00:00:00,38.6,-3.7
2024/03/10 00:10:00,38.5,-3.9
2024/03/10 00:20:00,38.5,-3.7
2024/03/10 00:30:00,38.4,-3.4
2024/03/10 00:40:00,38.3,-3.4
2024/03/10 00:50:00,38.4,-3.1
2024/03/10 01:00:00,38.4,-3.6
2024/03/10 01:10:00,38.3,-3.4
2024/03/10 01:20:00,38.3,-3.5
2024/03/10 01:30:00,38.2,-3.4
2024/03/10 01:40:00,38.2,-3.3
2024/03/10 01:50:00,38.1,-3.2
2024/03/10 02:00:00,38.1,-3.2
2024/03/10 02:10:00,38.0,-3.0
2024/03/10 02:20:00,38.0,-3.4
2024/03/10 02:30:00,37.9,-3.6
2024/03/10 02:40:00,37.8,-3.4
2024/03/10 02:50:00,37.8,-3.7
2024/03/10 03:00:00,37.7,-3.9
2024/03/10 03:10:00,37.6,-3.8
2024/03/10 03:20:00,37.6,-4.0
2024/03/10 03:30:00,37.5,-4.2
2024/03/10 03:40:00,37.4,-4.2
2024/03/10 03:50:00,37.4,-3.9
2024/03/10 04:00:00,37.3,-4.2
2024/03/10 04:10:00,37.3,-4.1
2024/03/10 04:20:00,37.2,-4.0
2024/03/10 04:30:00,37.2,-4.4
2024/03/10 04:40:00,37.1,-4.3
2024/03/10 04:50:00,37.1,-4.1
2024/03/10 05:00:00,37.0,-4.4
2024/03/10 05:10:00,36.9,-4.3
2024/03/10 05:20:00,36.9,-4.2
2024/03/10 05:30:00,36.8,-4.3
2024/03/10 05:40:00,36.7,-4.4
2024/03/10 05:50:00,36.7,-4.3
2024/03/10 06:00:00,36.7,-4.1
2024/03/10 06:10:00,36.7,-4.2
2024/03/10 06:20:00,36.6,-4.1
2024/03/10 06:30:00,36.5,-4.3
2024/03/10 06:40:00,36.5,-4.4
2024/03/10 06:50:00,36.5,-4.1
2024/03/10 07:00:00,36.5,-4.0
2024/03/10 07:10:00,36.4,-3.5
2024/03/10 07:20:00,36.4,-3.7
2024/03/10 07:30:00,36.4,-3.7
2024/03/10 07:40:00,36.4,-4.0
2024/03/10 07:50:00,36.4,-2.5
2024/03/10 08:00:00,36.5,-1.3
2024/03/10 08:10:00,36.3,-0.7
2024/03/10 08:20:00,36.3,-0.2
2024/03/10 08:30:00,36.2,-0.7
2024/03/10 08:40:00,36.1,-0.5
2024/03/10 08:50:00,36.2, 0.2
2024/03/10 09:00:00,36.3, 0.7
2024/03/10 09:10:00,36.1, 0.5
2024/03/10 09:20:00,36.1, 1.7
2024/03/10 09:30:00,36.1, 2.0
2024/03/10 09:40:00,36.1, 1.6
2024/03/10 09:50:00,36.0, 1.6
2024/03/10 10:00:00,35.9, 1.5
2024/03/10 10:10:00,35.9, 1.6
2024/03/10 10:20:00,36.5, 4.4
2024/03/10 10:30:00,36.0, 3.5
2024/03/10 10:40:00,35.8, 3.0
2024/03/10 10:50:00,35.6, 2.9
2024/03/10 11:00:00,36.3, 5.8
2024/03/10 11:10:00,35.7, 4.1
2024/03/10 11:20:00,35.3, 3.2
2024/03/10 11:30:00,35.1, 2.9
2024/03/10 11:40:00,35.0, 3.0
2024/03/10 11:50:00,35.3, 9.0
2024/03/10 12:00:00,35.0, 6.2
2024/03/10 12:10:00,34.9, 6.5
2024/03/10 12:20:00,34.7, 5.7
2024/03/10 12:30:00,34.5, 6.4
2024/03/10 12:40:00,34.3, 5.9
2024/03/10 12:50:00,34.1, 4.8
2024/03/10 13:00:00,34.5, 5.9
2024/03/10 13:10:00,34.6, 8.9
2024/03/10 13:20:00,33.8, 8.6
2024/03/10 13:30:00,33.1, 6.8
2024/03/10 13:40:00,32.7, 5.8
2024/03/10 13:50:00,33.5,10.4
2024/03/10 14:00:00,32.3, 8.6
2024/03/10 14:10:00,31.3, 7.2
2024/03/10 14:20:00,31.7, 9.5
2024/03/10 14:30:00,31.4, 8.2
2024/03/10 14:40:00,30.0, 6.4
2024/03/10 14:50:00,29.8, 6.7
2024/03/10 15:00:00,30.3, 9.5
2024/03/10 15:10:00,29.6, 8.9
2024/03/10 15:20:00,28.8, 6.0
2024/03/10 15:30:00,29.0, 7.9
2024/03/10 15:40:00,28.8, 6.9
2024/03/10 15:50:00,29.5,13.7
2024/03/10 16:00:00,29.2,14.0
2024/03/10 16:10:00,28.8,13.9
2024/03/10 16:20:00,28.4,12.3
2024/03/10 16:30:00,28.1,13.2
2024/03/10 16:40:00,27.5,11.7
2024/03/10 16:50:00,27.1, 9.0
2024/03/10 17:00:00,26.7, 7.2
2024/03/10 17:10:00,26.5, 7.4
2024/03/10 17:20:00,26.3, 7.0
2024/03/10 17:30:00,26.2, 5.4
2024/03/10 17:40:00,26.0, 5.3
2024/03/10 17:50:00,26.0, 4.2
2024/03/10 18:00:00,25.9, 2.2
2024/03/10 18:10:00,25.7, 0.1
2024/03/10 18:20:00,25.7,-0.6
2024/03/10 18:30:00,25.7,-1.1
2024/03/10 18:40:00,25.8,-1.4
2024/03/10 18:50:00,25.7,-1.6
2024/03/10 19:00:00,25.7,-1.9
2024/03/10 19:10:00,25.6,-1.9
2024/03/10 19:20:00,25.5,-1.9
2024/03/10 19:30:00,25.5,-2.1
2024/03/10 19:40:00,25.5,-2.3
2024/03/10 19:50:00,25.4,-2.4
2024/03/10 20:00:00,25.4,-2.1
2024/03/10 20:10:00,25.4,-2.3
2024/03/10 20:20:00,25.3,-2.4
2024/03/10 20:30:00,25.3,-2.0
2024/03/10 20:40:00,25.3,-2.3
2024/03/10 20:50:00,25.3,-2.4
2024/03/10 21:00:00,25.2,-2.1
2024/03/10 21:10:00,25.2,-1.7
2024/03/10 21:20:00,25.1,-1.3
2024/03/10 21:30:00,25.2,-1.5
2024/03/10 21:40:00,25.1,-1.5
2024/03/10 21:50:00,25.1,-1.8
2024/03/10 22:00:00,25.1,-1.9
2024/03/10 22:10:00,25.1,-1.9
2024/03/10 22:20:00,25.1,-1.6
2024/03/10 22:30:00,25.0,-1.6
2024/03/10 22:40:00,25.0,-1.8
2024/03/10 22:50:00,25.1,-2.1
2024/03/10 23:00:00,25.0,-2.0
2024/03/10 23:10:00,25.0,-1.9
2024/03/10 23:20:00,25.0,-2.2
2024/03/10 23:30:00,25.0,-2.1
2024/03/10 23:40:00,25.0,-2.2
2024/03/10 23:50:00,24.9,-2.2
